Flag for U.S.A. Weather past 2 weeks in Provincetown, Massachusetts, U.S.A.

43 °F

Mostly cloudy.

Feels Like: 35 °F
Forecast: 39 / 43 °F
Wind: 15 mph from Northeast

Location: Provincetown Weather Reporting Station

Current Time: Nov 29, 2015 at 4:56:29 PM

Latest Report: Nov 29, 2015 at 4:15 PM

Visibility: 10 mi

Pressure: 30.42 "Hg

Humidity: 76%

Dew point: 36 °F

Location of ProvincetownLocation

Historic Weather in Provincetown — Graph


Provincetown temperature yesterday

Maximum temperature yesterday: 54 °F (at 3:56 AM)
Minimum temperature yesterday: 44 °F (at 6:56 PM)
Average temperature yesterday: 50 °F

Past Weeks' High & Low Weather Summary

High61 °F (Nov 27, 12:15 PM)100% (Nov 20, 6:15 AM)30.89 "Hg (Nov 20, 6:15 AM)
Low21 °F (Nov 18, 5:56 AM)39% (Nov 23, 2:35 PM)29.74 "Hg (Nov 23, 2:56 AM)
Average46 °F71%30.38 "Hg
* Reported Nov 14 3:15 PM — Nov 29 3:35 PM, Provincetown, Weather by CustomWeather, © 2015

Note: Actual official high and low records may vary slightly from our data, if they occured in-between our weather recording intervals... More about our weather records


Provincetown weather history for previous 24 hours

Time TempWeatherWind HumidityBarometerVisibility
3:35 PM
Sun, Nov 29
41 °FPartly sunny.10 mph76%30.42 "Hg10 mi
3:15 PM41 °FSunny.10 mph66%30.42 "Hg10 mi
2:56 PM41 °FSunny.9 mph67%30.21 "Hg10 mi
2:35 PM41 °FSunny.9 mph66%30.42 "Hg10 mi
2:15 PM43 °FSunny.9 mph61%30.42 "Hg10 mi
1:56 PM42 °FSunny.9 mph68%30.20 "Hg10 mi
1:35 PM43 °FSunny.10 mph66%30.42 "Hg10 mi
1:15 PM41 °FSunny.9 mph70%30.42 "Hg10 mi
12:56 PM42 °FSunny.10 mph65%30.20 "Hg10 mi
12:35 PM43 °FSunny.8 mph61%30.42 "Hg10 mi
12:15 PM43 °FSunny.8 mph61%30.42 "Hg10 mi
11:56 AM42 °FSunny.9 mph68%30.21 "Hg10 mi
11:35 AM43 °FSunny.9 mph66%30.42 "Hg10 mi
11:15 AM43 °FSunny.9 mph66%30.42 "Hg10 mi
10:56 AM42 °FSunny.10 mph68%30.22 "Hg10 mi
10:35 AM43 °FSunny.7 mph71%30.42 "Hg10 mi
10:15 AM43 °FSunny.7 mph71%30.23 "Hg10 mi
9:56 AM41 °FSunny.8 mph74%30.23 "Hg10 mi
9:35 AM39 °FSunny.9 mph81%30.42 "Hg10 mi
9:15 AM39 °FSunny.9 mph81%30.24 "Hg10 mi
8:56 AM39 °FSunny.9 mph79%30.23 "Hg10 mi
8:35 AM39 °FSunny.8 mph81%30.42 "Hg10 mi
8:15 AM39 °FSunny.9 mph81%30.42 "Hg10 mi
7:56 AM40 °FSunny.7 mph80%30.23 "Hg10 mi
7:35 AM39 °FSunny.9 mph81%30.42 "Hg10 mi
7:15 AM39 °FPassing clouds.9 mph81%30.42 "Hg10 mi
6:56 AM40 °FScattered clouds.12 mph80%30.22 "Hg10 mi
6:35 AM39 °FPassing clouds.12 mph87%30.42 "Hg10 mi
6:15 AM39 °FPassing clouds.12 mph87%30.42 "Hg10 mi
5:56 AM40 °FMostly cloudy.10 mph86%30.19 "Hg10 mi
5:35 AM41 °FOvercast.12 mph87%30.42 "Hg10 mi
5:15 AM43 °FOvercast.14 mph81%30.42 "Hg10 mi
4:35 AM43 °FMostly cloudy.N/A87%N/A10 mi
4:15 AM45 °FOvercast.10 mph76%30.42 "Hg10 mi
3:56 AM44 °FOvercast.8 mph71%30.17 "Hg10 mi
3:35 AM45 °FOvercast.5 mph71%30.42 "Hg10 mi
3:15 AM45 °FMostly cloudy.6 mph71%30.42 "Hg10 mi
2:56 AM44 °FMostly cloudy.7 mph73%30.17 "Hg10 mi
1:35 AM45 °FQuite cool.6 mph76%30.42 "Hg10 mi
10:56 PM
Sat, Nov 28
44 °FOvercast.12 mph82%30.18 "Hg10 mi
10:35 PM45 °FQuite cool.10 mph81%30.42 "Hg10 mi
9:35 PM45 °FQuite cool.9 mph87%30.42 "Hg10 mi
7:56 PM44 °FOvercast.12 mph89%30.18 "Hg10 mi
7:35 PM45 °FLow clouds.15 mph93%30.42 "Hg9 mi
6:56 PM44 °FFog.15 mph96%30.17 "Hg6 mi
6:15 PM45 °FLow clouds.13 mph93%30.42 "Hg9 mi
5:56 PM45 °FLow clouds.12 mph90%30.16 "Hg9 mi
4:56 PM46 °FLight rain. Overcast.13 mph89%30.15 "Hg10 mi
4:35 PM46 °FOvercast.12 mph87%30.42 "Hg10 mi
Weather by CustomWeather, © 2015

See weather overviewHow to use our weather pages